| time (UTC) | temp C | wind direction | speed KPH | gust KPH | rain 1hr cm | rain 24hr cm | rain mn cm | humidity % | barometer mb |
| 20260503072023 | 23 | 229 | 16.1 | 0.0 | 0.00 | 0.00 | 0.00 | 30 | 2147.4 |
| 20260503071522 | 23 | 229 | 16.1 | 0.0 | 0.00 | 0.00 | 0.00 | 33 | 2147.4 |
| 20260503071018 | 23 | 229 | 16.1 | 0.0 | 0.00 | 0.00 | 0.00 | 31 | 2147.4 |
| 20260503070517 | 22 | 229 | 16.1 | 0.0 | 0.00 | 0.00 | 0.00 | 33 | 2147.4 |
| 20260503054931 | 21 | 225 | 14.5 | 0.0 | 0.00 | 0.00 | 0.00 | 38 | 2147.4 |
| 20260503054428 | 20 | 225 | 14.5 | 0.0 | 0.00 | 0.00 | 0.00 | 41 | 2147.4 |
| 20260503053924 | 20 | 218 | 9.7 | 0.0 | 0.00 | 0.00 | 0.00 | 43 | 2147.4 |
| 20260503053420 | 20 | 218 | 9.7 | 0.0 | 0.00 | 0.00 | 0.00 | 44 | 2147.4 |
| 20260503052917 | 19 | 218 | 9.7 | 0.0 | 0.00 | 0.00 | 0.00 | 44 | 2147.4 |
| 20260503052413 | 18 | 218 | 9.7 | 0.0 | 0.00 | 0.00 | 0.00 | 47 | 2147.4 |
| 20260503051910 | 17 | 218 | 9.7 | 0.0 | 0.00 | 0.00 | 0.00 | 49 | 2147.4 |
| 20260503051406 | 17 | 217 | 8.0 | 0.0 | 0.00 | 0.00 | 0.00 | 49 | 2147.4 |
| 20260503050903 | 16 | 217 | 8.0 | 0.0 | 0.00 | 0.00 | 0.00 | 49 | 2147.4 |
| 20260503050359 | 16 | 217 | 8.0 | 0.0 | 0.00 | 0.00 | 0.00 | 49 | 2147.4 |
| 20260503045856 | 15 | 217 | 8.0 | 0.0 | 0.00 | 0.00 | 0.00 | 50 | 2147.4 |
| 20260503045353 | 15 | 217 | 8.0 | 0.0 | 0.00 | 0.00 | 0.00 | 51 | 2147.4 |
| 20260503044348 | 13 | 217 | 8.0 | 0.0 | 0.00 | 0.00 | 0.00 | 53 | 2147.4 |
| 20260503043844 | 13 | 217 | 8.0 | 0.0 | 0.00 | 0.00 | 0.00 | 54 | 2147.4 |
| 20260503043341 | 13 | 217 | 8.0 | 0.0 | 0.00 | 0.00 | 0.00 | 56 | 2147.4 |
| 20260503042839 | 12 | 217 | 8.0 | 0.0 | 0.00 | 0.00 | 0.00 | 56 | 2147.4 |
| 20260503042337 | 12 | 217 | 8.0 | 0.0 | 0.00 | 0.00 | 0.00 | 57 | 2147.4 |
| 20260503041833 | 11 | 217 | 8.0 | 0.0 | 0.00 | 0.00 | 0.00 | 59 | 2147.4 |
| 20260503041329 | 11 | 217 | 8.0 | 0.0 | 0.00 | 0.00 | 0.00 | 61 | 2147.4 |
| 20260503040826 | 10 | 217 | 8.0 | 0.0 | 0.00 | 0.00 | 0.00 | 63 | 2147.4 |
| 20260503040322 | 9 | 217 | 8.0 | 0.0 | 0.00 | 0.00 | 0.00 | 64 | 2147.4 |
| 20260503035819 | 8 | 217 | 8.0 | 0.0 | 0.00 | 0.00 | 0.00 | 67 | 2147.4 |
| 20260503035316 | 8 | 217 | 8.0 | 0.0 | 0.00 | 0.00 | 0.00 | 68 | 2147.4 |
| 20260503034813 | 7 | 217 | 8.0 | 0.0 | 0.00 | 0.00 | 0.00 | 71 | 2147.4 |
| 20260503034309 | 7 | 217 | 8.0 | 0.0 | 0.00 | 0.00 | 0.00 | 71 | 2147.4 |
| 20260503033806 | 7 | 217 | 8.0 | 0.0 | 0.00 | 0.00 | 0.00 | 73 | 2147.4 |
| 20260503033302 | 6 | 223 | 8.0 | 0.0 | 0.00 | 0.00 | 0.00 | 75 | 2147.4 |
| 20260503032759 | 6 | 223 | 8.0 | 0.0 | 0.00 | 0.00 | 0.00 | 76 | 2147.4 |
| 20260503032256 | 6 | 223 | 8.0 | 0.0 | 0.00 | 0.00 | 0.00 | 80 | 2147.4 |
| 20260503031754 | 6 | 223 | 8.0 | 0.0 | 0.00 | 0.00 | 0.00 | 80 | 2147.4 |
| 20260503031253 | 5 | 223 | 8.0 | 0.0 | 0.00 | 0.00 | 0.00 | 84 | 2147.4 |
| 20260503030749 | 5 | 223 | 8.0 | 0.0 | 0.00 | 0.00 | 0.00 | 90 | 2147.4 |
| 20260503030246 | 4 | 223 | 8.0 | 0.0 | 0.00 | 0.00 | 0.00 | 92 | 2147.4 |
| 20260503025743 | 3 | 223 | 8.0 | 0.0 | 0.00 | 0.00 | 0.00 | 91 | 2147.4 |
| 20260503025239 | 4 | 223 | 8.0 | 0.0 | 0.00 | 0.00 | 0.00 | 90 | 2147.4 |
| 20260503024738 | 4 | 223 | 8.0 | 0.0 | 0.00 | 0.00 | 0.00 | 89 | 2147.4 |
| 20260503024235 | 4 | 223 | 8.0 | 0.0 | 0.00 | 0.00 | 0.00 | 88 | 2147.4 |
| 20260503023731 | 4 | 232 | 8.0 | 0.0 | 0.00 | 0.00 | 0.00 | 91 | 2147.4 |
| 20260503022726 | 4 | 232 | 8.0 | 0.0 | 0.00 | 0.00 | 0.00 | 89 | 2147.4 |
| 20260503022223 | 4 | 232 | 8.0 | 0.0 | 0.00 | 0.00 | 0.00 | 91 | 2147.4 |
| 20260503021719 | 4 | 232 | 8.0 | 0.0 | 0.00 | 0.00 | 0.00 | 90 | 2147.4 |
| 20260503021216 | 4 | 232 | 8.0 | 0.0 | 0.00 | 0.00 | 0.00 | 90 | 2147.4 |
| 20260503020712 | 4 | 232 | 8.0 | 0.0 | 0.00 | 0.00 | 0.00 | 88 | 2147.4 |
| 20260503020209 | 4 | 232 | 8.0 | 0.0 | 0.00 | 0.00 | 0.00 | 87 | 2147.4 |
| 20260503015705 | 5 | 232 | 8.0 | 0.0 | 0.00 | 0.00 | 0.00 | 87 | 2147.4 |
| 20260503015202 | 5 | 232 | 8.0 | 0.0 | 0.00 | 0.00 | 0.00 | 88 | 2147.4 |
| 20260503014701 | 4 | 232 | 8.0 | 0.0 | 0.00 | 0.00 | 0.00 | 87 | 2147.4 |
| 20260503014200 | 5 | 232 | 8.0 | 0.0 | 0.00 | 0.00 | 0.00 | 89 | 2147.4 |
| 20260503013657 | 5 | 232 | 8.0 | 0.0 | 0.00 | 0.00 | 0.00 | 87 | 2147.4 |
| 20260503013153 | 5 | 236 | 8.0 | 0.0 | 0.00 | 0.00 | 0.00 | 88 | 2147.4 |
| 20260503012649 | 4 | 236 | 8.0 | 0.0 | 0.00 | 0.00 | 0.00 | 89 | 2147.4 |
| 20260503012146 | 4 | 236 | 8.0 | 0.0 | 0.00 | 0.00 | 0.00 | 91 | 2147.4 |
| 20260503011642 | 4 | 236 | 8.0 | 0.0 | 0.00 | 0.00 | 0.00 | 90 | 2147.4 |
| 20260503011139 | 5 | 236 | 8.0 | 0.0 | 0.00 | 0.00 | 0.00 | 90 | 2147.4 |
| 20260503010636 | 5 | 236 | 8.0 | 0.0 | 0.00 | 0.00 | 0.00 | 91 | 2147.4 |
| 20260503010132 | 5 | 236 | 8.0 | 0.0 | 0.00 | 0.00 | 0.00 | 88 | 2147.4 |
| 20260503005630 | 5 | 236 | 8.0 | 0.0 | 0.00 | 0.00 | 0.00 | 90 | 2147.4 |
| 20260503005127 | 5 | 236 | 8.0 | 0.0 | 0.00 | 0.00 | 0.00 | 91 | 2147.4 |
| 20260503004624 | 5 | 230 | 8.0 | 0.0 | 0.00 | 0.00 | 0.00 | 88 | 2147.4 |
| 20260503004120 | 5 | 230 | 8.0 | 0.0 | 0.00 | 0.00 | 0.00 | 88 | 2147.4 |
| 20260503003617 | 5 | 230 | 8.0 | 0.0 | 0.00 | 0.00 | 0.00 | 90 | 2147.4 |
| 20260503003116 | 5 | 233 | 8.0 | 0.0 | 0.00 | 0.00 | 0.00 | 89 | 2147.4 |
| 20260503002612 | 5 | 233 | 8.0 | 0.0 | 0.00 | 0.00 | 0.00 | 90 | 2147.4 |
| 20260503002109 | 5 | 233 | 8.0 | 0.0 | 0.00 | 0.00 | 0.00 | 89 | 2147.4 |
| 20260503001608 | 5 | 233 | 8.0 | 0.0 | 0.00 | 0.00 | 0.00 | 89 | 2147.4 |
| 20260503001107 | 5 | 233 | 8.0 | 0.0 | 0.00 | 0.00 | 0.00 | 87 | 2147.4 |
| 20260503000604 | 5 | 233 | 8.0 | 0.0 | 0.00 | 0.00 | 0.00 | 87 | 2147.4 |
| 20260503000103 | 5 | 233 | 8.0 | 0.0 | 0.00 | 0.00 | 0.00 | 89 | 2147.4 |
| 20260502235600 | 5 | 233 | 8.0 | 0.0 | 0.00 | 0.00 | 0.00 | 92 | 2147.4 |
| 20260502235056 | 5 | 233 | 8.0 | 0.0 | 0.00 | 0.00 | 0.00 | 91 | 2147.4 |
| 20260502234555 | 5 | 233 | 8.0 | 0.0 | 0.00 | 0.00 | 0.00 | 92 | 2147.4 |
| 20260502234052 | 4 | 233 | 8.0 | 0.0 | 0.00 | 0.00 | 0.00 | 93 | 2147.4 |
| 20260502233548 | 4 | 233 | 8.0 | 0.0 | 0.00 | 0.00 | 0.00 | 92 | 2147.4 |
| 20260502233047 | 4 | 231 | 8.0 | 0.0 | 0.00 | 0.00 | 0.00 | 91 | 2147.4 |
| 20260502232544 | 5 | 231 | 8.0 | 0.0 | 0.00 | 0.00 | 0.00 | 92 | 2147.4 |
| 20260502232040 | 5 | 231 | 8.0 | 0.0 | 0.00 | 0.00 | 0.00 | 93 | 2147.4 |
| 20260502231537 | 5 | 231 | 8.0 | 0.0 | 0.00 | 0.00 | 0.00 | 94 | 2147.4 |
| 20260502231030 | 5 | 231 | 8.0 | 0.0 | 0.00 | 0.00 | 0.00 | 91 | 2147.4 |
| 20260502230526 | 5 | 231 | 8.0 | 0.0 | 0.00 | 0.00 | 0.00 | 91 | 2147.4 |
| 20260502230025 | 5 | 231 | 8.0 | 0.0 | 0.00 | 0.00 | 0.00 | 93 | 2147.4 |
| 20260502225523 | 5 | 231 | 8.0 | 0.0 | 0.00 | 0.00 | 0.00 | 92 | 2147.4 |
| 20260502225019 | 5 | 231 | 8.0 | 0.0 | 0.00 | 0.00 | 0.00 | 90 | 2147.4 |
| 20260502224518 | 5 | 231 | 8.0 | 0.0 | 0.00 | 0.00 | 0.00 | 88 | 2147.4 |
| 20260502224014 | 5 | 231 | 8.0 | 0.0 | 0.00 | 0.00 | 0.00 | 87 | 2147.4 |
| 20260502223511 | 5 | 231 | 8.0 | 0.0 | 0.00 | 0.00 | 0.00 | 84 | 2147.4 |
| 20260502223008 | 6 | 225 | 8.0 | 0.0 | 0.00 | 0.00 | 0.00 | 82 | 2147.4 |
| 20260502222504 | 5 | 225 | 8.0 | 0.0 | 0.00 | 0.00 | 0.00 | 85 | 2147.4 |
| 20260502222001 | 5 | 225 | 8.0 | 0.0 | 0.00 | 0.00 | 0.00 | 87 | 2147.4 |
| 20260502221457 | 5 | 225 | 8.0 | 0.0 | 0.00 | 0.00 | 0.00 | 88 | 2147.4 |
| 20260502220954 | 5 | 225 | 8.0 | 0.0 | 0.00 | 0.00 | 0.00 | 89 | 2147.4 |
| 20260502220450 | 5 | 225 | 8.0 | 0.0 | 0.00 | 0.00 | 0.00 | 90 | 2147.4 |
| 20260502215947 | 5 | 225 | 8.0 | 0.0 | 0.00 | 0.00 | 0.00 | 89 | 2147.4 |
| 20260502215444 | 5 | 225 | 8.0 | 0.0 | 0.00 | 0.00 | 0.00 | 89 | 2147.4 |
| 20260502214940 | 5 | 225 | 8.0 | 0.0 | 0.00 | 0.00 | 0.00 | 89 | 2147.4 |
| 20260502214436 | 5 | 225 | 8.0 | 0.0 | 0.00 | 0.00 | 0.00 | 87 | 2147.4 |
| 20260502213932 | 5 | 225 | 8.0 | 0.0 | 0.00 | 0.00 | 0.00 | 87 | 2147.4 |
| 20260502213431 | 5 | 225 | 8.0 | 0.0 | 0.00 | 0.00 | 0.00 | 87 | 2147.4 |
| 20260502212928 | 5 | 221 | 6.4 | 0.0 | 0.00 | 0.00 | 0.00 | 87 | 2147.4 |
| 20260502212424 | 6 | 221 | 6.4 | 0.0 | 0.00 | 0.00 | 0.00 | 88 | 2147.4 |
| 20260502211923 | 6 | 221 | 6.4 | 0.0 | 0.00 | 0.00 | 0.00 | 86 | 2147.4 |
| 20260502211420 | 6 | 221 | 6.4 | 0.0 | 0.00 | 0.00 | 0.00 | 86 | 2147.4 |
| 20260502210917 | 6 | 221 | 6.4 | 0.0 | 0.00 | 0.00 | 0.00 | 83 | 2147.4 |
| 20260502210413 | 6 | 221 | 6.4 | 0.0 | 0.00 | 0.00 | 0.00 | 83 | 2147.4 |
| 20260502205909 | 6 | 221 | 6.4 | 0.0 | 0.00 | 0.00 | 0.00 | 82 | 2147.4 |
| 20260502205405 | 6 | 221 | 6.4 | 0.0 | 0.00 | 0.00 | 0.00 | 80 | 2147.4 |
| 20260502204902 | 6 | 221 | 6.4 | 0.0 | 0.00 | 0.00 | 0.00 | 81 | 2147.4 |
| 20260502204401 | 7 | 221 | 6.4 | 0.0 | 0.00 | 0.00 | 0.00 | 80 | 2147.4 |
| 20260502203859 | 7 | 221 | 6.4 | 0.0 | 0.00 | 0.00 | 0.00 | 78 | 2147.4 |
| 20260502203358 | 7 | 217 | 4.8 | 0.0 | 0.00 | 0.00 | 0.00 | 78 | 2147.4 |
| 20260502202857 | 7 | 217 | 4.8 | 0.0 | 0.00 | 0.00 | 0.00 | 83 | 2147.4 |
| 20260502202354 | 7 | 217 | 4.8 | 0.0 | 0.00 | 0.00 | 0.00 | 80 | 2147.4 |
| 20260502201852 | 7 | 217 | 4.8 | 0.0 | 0.00 | 0.00 | 0.00 | 77 | 2147.4 |
| 20260502201351 | 7 | 217 | 4.8 | 0.0 | 0.00 | 0.00 | 0.00 | 82 | 2147.4 |
| 20260502200847 | 7 | 217 | 4.8 | 0.0 | 0.00 | 0.00 | 0.00 | 79 | 2147.4 |
| 20260502200346 | 7 | 217 | 4.8 | 0.0 | 0.00 | 0.00 | 0.00 | 81 | 2147.4 |
| 20260502195842 | 8 | 217 | 4.8 | 0.0 | 0.00 | 0.00 | 0.00 | 75 | 2147.4 |
| 20260502195338 | 8 | 217 | 4.8 | 0.0 | 0.00 | 0.00 | 0.00 | 75 | 2147.4 |
| 20260502194837 | 8 | 217 | 4.8 | 0.0 | 0.00 | 0.00 | 0.00 | 73 | 2147.4 |
| 20260502194335 | 8 | 217 | 4.8 | 0.0 | 0.00 | 0.00 | 0.00 | 73 | 2147.4 |
| 20260502193832 | 8 | 196 | 3.2 | 0.0 | 0.00 | 0.00 | 0.00 | 80 | 2147.4 |
| 20260502193330 | 8 | 196 | 3.2 | 0.0 | 0.00 | 0.00 | 0.00 | 77 | 2147.4 |
| 20260502192827 | 8 | 196 | 3.2 | 0.0 | 0.00 | 0.00 | 0.00 | 76 | 2147.4 |
| 20260502192323 | 9 | 196 | 3.2 | 0.0 | 0.00 | 0.00 | 0.00 | 75 | 2147.4 |
| 20260502191822 | 9 | 196 | 3.2 | 0.0 | 0.00 | 0.00 | 0.00 | 72 | 2147.4 |
| 20260502191318 | 10 | 196 | 3.2 | 0.0 | 0.00 | 0.00 | 0.00 | 76 | 2147.4 |
| 20260502190814 | 10 | 196 | 3.2 | 0.0 | 0.00 | 0.00 | 0.00 | 75 | 2147.4 |
| 20260502190311 | 10 | 196 | 3.2 | 0.0 | 0.00 | 0.00 | 0.00 | 76 | 2147.4 |
| 20260502185807 | 10 | 196 | 3.2 | 0.0 | 0.00 | 0.00 | 0.00 | 68 | 2147.4 |
| 20260502185305 | 10 | 196 | 3.2 | 0.0 | 0.00 | 0.00 | 0.00 | 71 | 2147.4 |
| 20260502184800 | 10 | 258 | 11.3 | 0.0 | 0.00 | 0.00 | 0.00 | 69 | 2147.4 |
| 20260502184257 | 11 | 258 | 11.3 | 0.0 | 0.00 | 0.00 | 0.00 | 70 | 2147.4 |
| 20260502183753 | 11 | 258 | 11.3 | 0.0 | 0.00 | 0.00 | 0.00 | 66 | 2147.4 |
| 20260502183250 | 11 | 258 | 11.3 | 0.0 | 0.00 | 0.00 | 0.00 | 65 | 2147.4 |
| 20260502182746 | 11 | 258 | 11.3 | 0.0 | 0.00 | 0.00 | 0.00 | 66 | 2147.4 |
| 20260502182243 | 12 | 258 | 11.3 | 0.0 | 0.00 | 0.00 | 0.00 | 67 | 2147.4 |
| 20260502181742 | 12 | 258 | 11.3 | 0.0 | 0.00 | 0.00 | 0.00 | 63 | 2147.4 |
| 20260502181239 | 12 | 258 | 11.3 | 0.0 | 0.00 | 0.00 | 0.00 | 68 | 2147.4 |
| 20260502180735 | 13 | 258 | 11.3 | 0.0 | 0.00 | 0.00 | 0.00 | 73 | 2147.4 |
| 20260502180232 | 13 | 258 | 11.3 | 0.0 | 0.00 | 0.00 | 0.00 | 72 | 2147.4 |
| 20260502170158 | 18 | 258 | 11.3 | 0.0 | 0.00 | 0.00 | 0.00 | 44 | 2147.4 |
| 20260502164150 | 18 | 258 | 11.3 | 0.0 | 0.00 | 0.00 | 0.00 | 44 | 2147.4 |
| 20260502163646 | 18 | 258 | 11.3 | 0.0 | 0.00 | 0.00 | 0.00 | 49 | 2147.4 |
| 20260502163145 | 18 | 258 | 11.3 | 0.0 | 0.00 | 0.00 | 0.00 | 53 | 2147.4 |
| 20260502162642 | 18 | 258 | 11.3 | 0.0 | 0.00 | 0.00 | 0.00 | 45 | 2147.4 |
| 20260502162138 | 18 | 258 | 11.3 | 0.0 | 0.00 | 0.00 | 0.00 | 38 | 2147.4 |
| 20260502161637 | 18 | 258 | 11.3 | 0.0 | 0.00 | 0.00 | 0.00 | 41 | 2147.4 |
| 20260502161136 | 20 | 258 | 11.3 | 0.0 | 0.00 | 0.00 | 0.00 | 36 | 2147.4 |
| 20260502160632 | 20 | 258 | 11.3 | 0.0 | 0.00 | 0.00 | 0.00 | 29 | 2147.4 |
| 20260502160129 | 21 | 258 | 11.3 | 0.0 | 0.00 | 0.00 | 0.00 | 30 | 2147.4 |
| 20260502152103 | 21 | 258 | 11.3 | 0.0 | 0.00 | 0.00 | 0.00 | 34 | 2147.4 |
| 20260502151559 | 23 | 258 | 11.3 | 0.0 | 0.00 | 0.00 | 0.00 | 21 | 2147.4 |
| 20260502151057 | 22 | 258 | 11.3 | 0.0 | 0.00 | 0.00 | 0.00 | 25 | 2147.4 |
| 20260502150553 | 21 | 258 | 11.3 | 0.0 | 0.00 | 0.00 | 0.00 | 29 | 2147.4 |
| 20260502130437 | 22 | 258 | 11.3 | 0.0 | 0.00 | 0.00 | 0.00 | 22 | 2147.4 |
| 20260502123419 | 22 | 258 | 11.3 | 0.0 | 0.00 | 0.00 | 0.00 | 23 | 2147.4 |
| 20260502122916 | 22 | 258 | 11.3 | 0.0 | 0.00 | 0.00 | 0.00 | 23 | 2147.4 |
| 20260502122413 | 21 | 258 | 11.3 | 0.0 | 0.00 | 0.00 | 0.00 | 23 | 2147.4 |
| 20260502121911 | 21 | 258 | 11.3 | 0.0 | 0.00 | 0.00 | 0.00 | 22 | 2147.4 |
| 20260502121408 | 22 | 258 | 11.3 | 0.0 | 0.00 | 0.00 | 0.00 | 20 | 2147.4 |
| 20260502120904 | 21 | 258 | 11.3 | 0.0 | 0.00 | 0.00 | 0.00 | 20 | 2147.4 |
| 20260502120400 | 21 | 258 | 11.3 | 0.0 | 0.00 | 0.00 | 0.00 | 23 | 2147.4 |
| 20260502115858 | 21 | 258 | 11.3 | 0.0 | 0.00 | 0.00 | 0.00 | 23 | 2147.4 |
| 20260502115353 | 22 | 258 | 11.3 | 0.0 | 0.00 | 0.00 | 0.00 | 21 | 2147.4 |
| 20260502114850 | 21 | 258 | 11.3 | 0.0 | 0.00 | 0.00 | 0.00 | 20 | 2147.4 |
| 20260502114346 | 21 | 258 | 11.3 | 0.0 | 0.00 | 0.00 | 0.00 | 22 | 2147.4 |
| 20260502113843 | 22 | 258 | 11.3 | 0.0 | 0.00 | 0.00 | 0.00 | 20 | 2147.4 |
| 20260502113339 | 21 | 258 | 11.3 | 0.0 | 0.00 | 0.00 | 0.00 | 24 | 2147.4 |
| 20260502112836 | 22 | 258 | 11.3 | 0.0 | 0.00 | 0.00 | 0.00 | 27 | 2147.4 |
| 20260502112333 | 21 | 258 | 11.3 | 0.0 | 0.00 | 0.00 | 0.00 | 28 | 2147.4 |
| 20260502111829 | 21 | 258 | 11.3 | 0.0 | 0.00 | 0.00 | 0.00 | 27 | 2147.4 |
| 20260502111325 | 21 | 258 | 11.3 | 0.0 | 0.00 | 0.00 | 0.00 | 25 | 2147.4 |
| 20260502110822 | 21 | 258 | 11.3 | 0.0 | 0.00 | 0.00 | 0.00 | 24 | 2147.4 |
| 20260502110318 | 21 | 258 | 11.3 | 0.0 | 0.00 | 0.00 | 0.00 | 26 | 2147.4 |
| 20260502105815 | 21 | 258 | 11.3 | 0.0 | 0.00 | 0.00 | 0.00 | 20 | 2147.4 |
| 20260502105312 | 21 | 258 | 11.3 | 0.0 | 0.00 | 0.00 | 0.00 | 20 | 2147.4 |
| 20260502104811 | 21 | 258 | 11.3 | 0.0 | 0.00 | 0.00 | 0.00 | 23 | 2147.4 |
| 20260502104307 | 21 | 258 | 11.3 | 0.0 | 0.00 | 0.00 | 0.00 | 26 | 2147.4 |
| 20260502103804 | 21 | 258 | 11.3 | 0.0 | 0.00 | 0.00 | 0.00 | 22 | 2147.4 |
| 20260502103301 | 21 | 258 | 11.3 | 0.0 | 0.00 | 0.00 | 0.00 | 26 | 2147.4 |
| 20260502102757 | 21 | 258 | 11.3 | 0.0 | 0.00 | 0.00 | 0.00 | 28 | 2147.4 |
| 20260502102253 | 21 | 258 | 11.3 | 0.0 | 0.00 | 0.00 | 0.00 | 26 | 2147.4 |
| 20260502101749 | 21 | 258 | 11.3 | 0.0 | 0.00 | 0.00 | 0.00 | 26 | 2147.4 |
| 20260502101246 | 21 | 258 | 11.3 | 0.0 | 0.00 | 0.00 | 0.00 | 29 | 2147.4 |
| 20260502100743 | 22 | 258 | 11.3 | 0.0 | 0.00 | 0.00 | 0.00 | 29 | 2147.4 |
| 20260502100242 | 21 | 258 | 11.3 | 0.0 | 0.00 | 0.00 | 0.00 | 27 | 2147.4 |
| 20260502091211 | 21 | 258 | 11.3 | 0.0 | 0.00 | 0.00 | 0.00 | 30 | 2147.4 |
| 20260502090708 | 21 | 258 | 11.3 | 0.0 | 0.00 | 0.00 | 0.00 | 33 | 2147.4 |
| 20260502090204 | 22 | 258 | 11.3 | 0.0 | 0.00 | 0.00 | 0.00 | 29 | 2147.4 |